Location: Marcé
(47.5801°N, 0.3280°W)
Time: 08:46:52
(UTC+01:00)

Vanguard 1 - Pass Details

Date: 07 December 2021
Orbit: 652 x 3830 km, 34.2° (Epoch: 16 January)

Event Time Altitude Azimuth Distance (km) Brightness Sun altitude
Exits shadow 07:27:41 - 271° (W) 6,781 13.7 -10.9°
Reaches altitude 10° 07:30:06 10° 266° (W) 6,379 13.6 -10.6°
Maximum altitude 07:40:23 17° 233° (SW) 4,999 13.4 -9.0°
Drops below altitude 10° 07:48:26 10° 199° (SSW) 4,790 13.7 -7.7°
Sets 07:53:20 0° 180° (S) 5,224 14.2 -7.0°
